Location: Aigremont
(47.7188°N, 3.8925°E)
Time: 14:49:03
(UTC+00:00)

Cosmos 1656 Rocket - Pass Details

Date: 18 February 2020
Orbit: 794 x 848 km, 71.1° (Epoch: 27 March)

Event Time Altitude Azimuth Distance (km) Brightness Sun altitude
Rises 04:53:56 0° 334° (NNW) 3,404 6.6 -19.5°
Reaches altitude 10° 04:56:25 10° 339° (NNW) 2,471 5.9 -19.1°
Maximum altitude 05:02:02 58° 58° (ENE) 984 4.3 -18.2°
Drops below altitude 10° 05:07:37 10° 138° (SE) 2,468 6.7 -17.2°
Sets 05:10:07 0° 142° (SE) 3,399 7.4 -16.8°
